FW6539 Weather Reports


Display with metric or nautical units.
time (UTC)temp
F
wind
direction
speed
MPH
gust
MPH
rain 1hr
in
rain 24hr
in
rain mn
in
humidity
%
barometer
mb
20200712055004 72 25 0.0 4.0 0.00 0.91 0.00 96 1002.8
20200712054504 72 75 0.0 6.0 0.00 0.91 0.00 96 1002.8
20200712054003 72 45 1.0 6.0 0.00 0.91 0.00 96 1003.1
20200712053503 72 2 0.0 4.0 0.00 0.91 0.00 96 1003.2
20200712053002 72 345 0.0 4.0 0.00 0.91 0.00 96 1003.3
20200712052501 72 214 0.0 3.0 0.00 0.91 0.00 96 1003.3
20200712052004 72 20 0.0 3.0 0.00 0.91 0.00 96 1003.3
20200712051707 72 323 0.0 2.0 0.00 0.91 0.00 96 1003.4
20200712051102 72 82 0.0 2.0 0.00 0.91 0.00 96 1003.4
20200712050603 72 111 0.0 2.0 0.00 0.91 0.00 96 1003.6
20200712045608 72 350 0.0 2.0 0.00 0.95 0.00 96 1003.4
20200712045128 72 311 0.0 3.0 0.00 0.95 0.00 96 1003.4
20200712044627 72 319 0.0 3.0 0.00 0.95 0.00 96 1003.4
20200712044105 72 318 0.0 3.0 0.00 0.95 0.00 96 1003.4
20200712043557 72 315 0.0 2.0 0.00 0.95 0.00 96 1003.5
20200712043109 72 314 0.0 3.0 0.00 0.95 0.00 96 1003.5
20200712042556 72 283 0.0 2.0 0.00 0.95 0.00 96 1003.5
20200712042101 72 316 0.0 2.0 0.00 0.95 0.00 96 1003.5
20200712041848 72 39 0.0 2.0 0.00 0.95 0.00 96 1003.5
20200712041055 72 249 0.0 2.0 0.00 0.95 0.00 96 1003.7
20200712040554 72 91 0.0 4.0 0.00 0.95 0.00 96 1003.7
20200712040220 72 329 0.0 4.0 0.00 0.95 0.00 96 1003.8
20200712035554 72 63 0.0 2.0 0.00 0.96 0.95 96 1003.9
20200712035053 72 29 0.0 2.0 0.00 0.96 0.95 96 1004.0
20200712034631 72 353 0.0 2.0 0.00 0.96 0.95 96 1004.1
20200712034051 72 10 0.0 2.0 0.00 0.96 0.95 96 1004.1
20200712033549 72 208 0.0 3.0 0.00 0.96 0.95 96 1004.2
20200712033146 72 92 0.0 3.0 0.00 0.96 0.95 96 1004.2
20200712032549 72 105 0.0 2.0 0.00 0.96 0.95 96 1004.2
20200712032050 72 131 0.0 3.0 0.00 0.96 0.95 95 1004.2
20200712031627 72 338 0.0 3.0 0.00 0.96 0.95 95 1004.3
20200712031104 72 56 0.0 1.0 0.00 0.96 0.95 95 1004.4
20200712030555 72 74 0.0 1.0 0.00 0.96 0.95 95 1004.4
20200712030147 72 37 0.0 1.0 0.00 0.96 0.95 95 1004.4
20200712025601 73 32 0.0 1.0 0.00 0.96 0.95 95 1004.4
20200712025048 73 55 0.0 2.0 0.00 0.96 0.95 95 1004.4
20200712024557 73 86 0.0 3.0 0.00 0.96 0.95 95 1004.4
20200712024048 73 262 0.0 3.0 0.00 0.96 0.95 95 1004.4
20200712023557 73 98 0.0 2.0 0.00 0.96 0.95 95 1004.4
20200712023138 72 49 0.0 1.0 0.00 0.96 0.95 95 1004.4
20200712022553 72 330 0.0 1.0 0.00 0.96 0.95 95 1004.5
20200712022047 72 346 0.0 2.0 0.00 0.96 0.95 95 1004.6
20200712021646 72 115 1.0 3.0 0.00 0.96 0.95 95 1004.5
20200712021047 72 20 0.0 3.0 0.00 0.96 0.95 95 1004.4
20200712020553 72 350 0.0 3.0 0.00 0.96 0.95 95 1004.5
20200712020132 72 303 0.0 2.0 0.00 0.96 0.95 95 1004.5
20200712015546 72 340 0.0 1.0 0.00 0.97 0.95 95 1004.6
20200712015046 72 3 0.0 1.0 0.00 0.97 0.95 94 1004.6
20200712014556 72 4 0.0 3.0 0.00 0.97 0.95 94 1004.6
20200712014046 72 302 0.0 2.0 0.00 0.97 0.95 94 1004.6
20200712013552 73 108 0.0 5.0 0.00 0.97 0.95 94 1004.6
20200712013137 73 180 0.0 5.0 0.00 0.97 0.95 94 1004.7
20200712012545 73 66 0.0 2.0 0.00 0.97 0.95 94 1004.8
20200712012045 73 308 0.0 2.0 0.00 0.97 0.95 93 1004.7
20200712011718 73 13 0.0 1.0 0.00 0.97 0.95 93 1004.7
20200712011045 73 342 0.0 1.0 0.00 0.97 0.95 93 1004.7
20200712010553 73 359 0.0 4.0 0.00 0.97 0.95 93 1004.7
20200712010102 73 312 1.0 4.0 0.00 0.97 0.95 92 1004.7
20200712005544 73 85 0.0 2.0 0.00 1.00 0.95 92 1004.6
20200712005044 74 340 0.0 1.0 0.00 1.00 0.95 92 1004.6
20200712004627 74 345 0.0 1.0 0.00 1.00 0.95 91 1004.5
20200712004051 74 354 0.0 3.0 0.00 1.00 0.95 91 1004.5
20200712003547 74 82 0.0 3.0 0.00 1.00 0.95 91 1004.5
20200712003125 74 222 0.0 4.0 0.00 1.00 0.95 91 1004.4
20200712002549 74 167 0.0 4.0 0.00 1.00 0.95 90 1004.4
20200712002048 75 84 0.0 4.0 0.00 1.00 0.95 90 1004.5
20200712001626 75 286 0.0 6.0 0.00 1.00 0.95 90 1004.4
20200712001100 75 335 1.0 6.0 0.00 1.00 0.95 90 1004.5
20200712000547 75 98 1.0 5.0 0.00 1.00 0.95 90 1004.5
20200712000125 75 244 1.0 6.0 0.00 1.00 0.95 89 1004.5
20200711235544 75 37 0.0 6.0 0.00 1.00 0.95 89 1004.5
20200711235043 75 288 1.0 5.0 0.00 1.00 0.95 89 1004.4
20200711234655 75 20 1.0 4.0 0.00 1.00 0.95 89 1004.5
20200711234057 75 352 0.0 4.0 0.00 1.00 0.95 88 1004.5
20200711233544 76 155 0.0 6.0 0.00 1.00 0.95 88 1004.5
20200711233100 76 251 1.0 6.0 0.00 1.00 0.95 88 1004.4
20200711232544 76 319 0.0 2.0 0.00 1.00 0.95 87 1004.5
20200711232047 76 318 0.0 4.0 0.00 1.00 0.95 87 1004.3
20200711231717 76 135 1.0 6.0 0.00 1.00 0.95 87 1004.4
20200711231044 76 319 1.0 6.0 0.00 1.00 0.95 86 1004.3
20200711230539 76 333 1.0 5.0 0.00 1.00 0.95 86 1004.2
20200711230101 77 130 1.0 7.0 0.00 1.00 0.95 86 1004.3
20200711225542 77 297 3.0 7.0 0.00 1.00 0.95 86 1004.1
20200711225053 77 89 1.0 6.0 0.00 1.00 0.95 86 1004.3
20200711224623 77 270 3.0 6.0 0.00 1.00 0.95 85 1004.3
20200711224045 78 85 0.0 8.0 0.00 1.00 0.95 85 1004.2
20200711223537 78 101 2.0 8.0 0.00 1.00 0.95 84 1004.1
20200711223133 78 83 1.0 7.0 0.00 1.00 0.95 84 1004.2
20200711222538 79 256 1.0 7.0 0.00 1.00 0.95 83 1004.2
20200711222037 79 309 0.0 7.0 0.00 1.00 0.95 83 1004.2
20200711221605 79 174 2.0 8.0 0.00 1.00 0.95 82 1004.2
20200711221042 79 235 3.0 8.0 0.00 1.00 0.95 83 1004.2
20200711220540 79 336 0.0 8.0 0.00 1.00 0.95 83 1004.4
20200711220057 78 28 1.0 4.0 0.00 1.00 0.95 83 1004.4
20200711215534 79 323 0.0 7.0 0.00 1.00 0.95 82 1004.5
20200711215044 79 299 2.0 7.0 0.00 1.00 0.95 82 1004.6
20200711214610 79 315 3.0 8.0 0.00 1.00 0.95 81 1004.6
20200711214034 79 289 1.0 9.0 0.00 1.00 0.95 82 1004.6
20200711213041 78 65 1.0 6.0 0.00 1.00 0.95 83 1004.8
20200711212546 78 346 1.0 9.0 0.00 1.00 0.95 83 1004.9
20200711212030 78 338 3.0 11.0 0.00 1.00 0.95 83 1005.0
20200711211548 78 295 2.0 11.0 0.00 1.00 0.95 82 1005.2
20200711211029 79 153 3.0 11.0 0.00 1.00 0.95 82 1005.3
20200711210528 79 328 3.0 11.0 0.00 1.00 0.95 81 1005.3
20200711210056 79 12 2.0 9.0 0.00 1.00 0.95 82 1005.5
20200711205531 79 127 1.0 9.0 0.00 1.00 0.95 82 1005.5
20200711205028 79 305 1.0 10.0 0.00 1.00 0.95 81 1005.5
20200711204550 80 93 1.0 10.0 0.00 1.00 0.95 80 1005.6
20200711204033 80 75 2.0 8.0 0.00 1.00 0.95 80 1005.5
20200711203532 80 61 2.0 7.0 0.00 1.00 0.95 79 1005.5
20200711203116 80 324 3.0 7.0 0.00 1.00 0.95 79 1005.5
20200711202533 80 331 3.0 13.0 0.00 1.00 0.95 78 1005.5
20200711202026 81 351 3.0 7.0 0.00 1.00 0.95 78 1005.5
20200711201547 81 53 1.0 9.0 0.00 1.00 0.95 80 1005.5
20200711201030 80 77 2.0 9.0 0.00 1.00 0.95 80 1005.4
20200711200524 80 329 2.0 8.0 0.00 1.00 0.95 82 1005.5
20200711200044 79 345 3.0 7.0 0.00 1.00 0.95 82 1005.5
20200711195524 79 184 2.0 8.0 0.00 1.00 0.95 82 1005.6
20200711195039 79 70 2.0 10.0 0.00 1.00 0.95 82 1005.7
20200711194528 79 304 3.0 8.0 0.00 1.00 0.95 82 1005.8
20200711194023 79 319 3.0 9.0 0.00 1.00 0.95 81 1005.7
20200711193523 79 326 2.0 9.0 0.00 1.00 0.95 80 1005.7
20200711193110 80 161 3.0 8.0 0.00 1.00 0.95 79 1005.7
20200711192522 80 276 3.0 8.0 0.00 1.00 0.95 81 1005.7
20200711192034 80 2 3.0 10.0 0.00 1.00 0.95 78 1005.8
20200711191539 80 282 3.0 10.0 0.00 1.00 0.95 79 1005.8
20200711191024 80 324 4.0 9.0 0.00 1.00 0.95 79 1005.9
20200711190518 80 221 2.0 9.0 0.00 1.00 0.95 80 1006.0
20200711190042 80 79 2.0 7.0 0.00 1.00 0.95 80 1005.9
20200711185518 80 199 2.0 7.0 0.00 1.00 0.95 79 1006.1
20200711185025 80 324 3.0 8.0 0.00 1.00 0.95 80 1006.0
20200711184520 80 84 2.0 9.0 0.00 1.00 0.95 80 1006.1
20200711184020 80 319 2.0 9.0 0.00 1.00 0.95 80 1006.1
20200711183515 80 282 1.0 11.0 0.00 1.00 0.95 80 1006.3
20200711183034 80 42 2.0 9.0 0.00 1.00 0.95 79 1006.3
20200711182516 80 184 1.0 12.0 0.00 1.00 0.95 80 1006.3
20200711182014 80 60 1.0 10.0 0.00 1.00 0.95 81 1006.3
20200711181537 80 165 4.0 10.0 0.00 1.00 0.95 80 1006.5
20200711181012 80 311 3.0 11.0 0.00 1.00 0.95 80 1006.7
20200711180515 80 333 3.0 11.0 0.00 1.00 0.95 79 1006.8
20200711180010 80 124 4.0 11.0 0.00 1.00 0.95 80 1007.0
20200711175515 80 357 1.0 11.0 0.00 1.00 0.95 81 1007.0
20200711175008 80 136 3.0 9.0 0.00 1.00 0.95 81 1007.0
20200711174509 79 338 3.0 13.0 0.00 1.00 0.95 81 1007.0
20200711174008 79 1 4.0 10.0 0.00 1.00 0.95 81 1007.1
20200711173507 79 328 3.0 12.0 0.00 1.00 0.95 81 1007.1
20200711172505 79 51 4.0 16.0 0.00 1.00 0.95 81 1007.1
20200711172005 79 309 2.0 16.0 0.00 1.00 0.95 83 1007.1
20200711171506 79 321 2.0 11.0 0.00 1.00 0.95 83 1007.2
20200711171006 79 44 1.0 11.0 0.00 1.00 0.95 84 1007.1
20200711170505 79 96 1.0 8.0 0.00 1.00 0.95 83 1007.2
20200711170004 79 86 2.0 6.0 0.00 1.00 0.95 84 1007.3
20200711165504 78 84 1.0 8.0 0.00 1.00 0.95 84 1007.2
20200711165100 78 104 1.0 8.0 0.00 1.00 0.95 85 1007.2
20200711164621 78 158 0.0 6.0 0.00 1.00 0.95 85 1007.3
20200711164101 77 49 0.0 6.0 0.00 1.00 0.95 87 1007.4
20200711163556 77 304 2.0 6.0 0.00 1.00 0.95 88 1007.6
20200711163117 76 87 0.0 6.0 0.00 1.00 0.95 88 1007.6
20200711162553 76 121 1.0 7.0 0.00 1.00 0.95 88 1007.6
20200711162054 75 99 1.0 7.0 0.00 1.00 0.95 89 1007.6
20200711161713 75 23 2.0 12.0 0.00 1.00 0.95 88 1007.6
20200711161054 75 262 3.0 12.0 0.00 1.00 0.95 88 1007.6
20200711160558 76 87 2.0 7.0 0.00 1.00 0.95 88 1007.7
20200711160141 76 157 2.0 7.0 0.00 1.00 0.95 88 1007.7
20200711155553 75 54 1.0 7.0 0.00 1.00 0.95 89 1007.7
20200711155053 75 51 2.0 8.0 0.00 1.00 0.95 88 1007.7
20200711154725 76 82 2.0 8.0 0.00 1.00 0.95 89 1007.7
20200711154053 75 306 1.0 6.0 0.00 1.00 0.95 90 1007.6
20200711153552 75 291 2.0 6.0 0.00 1.00 0.95 89 1007.7
20200711153222 75 340 2.0 7.0 0.00 1.00 0.95 90 1007.6
20200711152549 75 240 3.0 11.0 0.00 1.00 0.95 90 1007.6
20200711152048 75 285 2.0 14.0 0.00 1.00 0.95 92 1007.7
20200711151631 74 61 3.0 9.0 0.00 1.00 0.95 92 1007.7
20200711151045 74 278 1.0 7.0 0.00 1.00 0.95 94 1007.7
20200711150544 73 181 1.0 9.0 0.00 1.00 0.95 95 1007.8
20200711150125 73 120 3.0 9.0 0.00 1.00 0.95 95 1007.9
20200711145630 73 321 1.0 12.0 0.00 1.00 0.95 96 1007.8
20200711144556 73 110 1.0 9.0 0.00 1.00 0.95 98 1007.7
20200711144041 72 93 2.0 13.0 0.00 1.00 0.95 97 1007.8
20200711143548 72 32 2.0 14.0 0.00 1.00 0.95 98 1007.8
20200711143041 72 301 0.0 14.0 0.00 1.00 0.95 98 1007.8
20200711142538 71 356 2.0 7.0 0.00 1.00 0.95 97 1007.8
20200711142037 71 243 2.0 10.0 0.00 1.00 0.95 98 1007.9
20200711141628 71 79 4.0 10.0 0.00 1.00 0.95 98 1007.9
20200711141038 72 72 1.0 15.0 0.00 1.00 0.95 98 1008.0
20200711140539 71 96 1.0 15.0 0.00 1.00 0.95 98 1007.9
20200711140051 71 106 2.0 7.0 0.00 1.00 0.95 99 1008.0
20200711135537 71 81 1.0 8.0 0.00 1.00 0.95 99 1008.1
20200711135033 71 102 2.0 8.0 0.00 1.00 0.95 99 1008.1
20200711134625 71 51 2.0 7.0 0.00 1.00 0.95 99 1008.2
20200711134031 70 13 1.0 6.0 0.00 1.00 0.95 99 1008.3
20200711133530 70 96 1.0 7.0 0.00 1.00 0.95 99 1008.3
20200711133115 70 138 3.0 8.0 0.00 1.00 0.95 99 1008.4
20200711132535 70 37 1.0 8.0 0.00 1.00 0.95 99 1008.4
20200711132031 69 72 0.0 7.0 0.00 1.00 0.95 99 1008.5
20200711131614 69 37 0.0 7.0 0.00 1.00 0.95 99 1008.5
20200711131027 69 83 2.0 6.0 0.00 1.00 0.95 99 1008.6
20200711130533 70 99 1.0 12.0 0.00 1.00 0.95 99 1008.7
20200711130120 69 29 1.0 12.0 0.00 1.00 0.95 99 1008.7
20200711125532 70 121 0.0 7.0 0.00 1.00 0.95 99 1008.8
20200711125024 70 125 0.0 6.0 0.00 1.00 0.95 99 1008.9
20200711124529 69 294 1.0 7.0 0.00 1.00 0.95 99 1009.0
20200711124032 69 32 2.0 7.0 0.00 1.00 0.95 99 1008.9
20200711123534 70 237 1.0 6.0 0.00 1.00 0.95 99 1009.1
20200711123051 70 252 1.0 5.0 0.00 1.00 0.95 99 1009.1
20200711122523 70 87 1.0 5.0 0.00 1.00 0.95 99 1009.1
20200711122030 70 108 0.0 3.0 0.00 1.00 0.95 99 1009.0
20200711121558 70 345 0.0 5.0 0.00 1.00 0.95 99 1009.0
20200711121028 70 323 0.0 6.0 0.00 1.00 0.95 99 1008.9
20200711120523 70 20 0.0 8.0 0.00 1.00 0.95 99 1009.0
20200711120025 70 106 1.0 4.0 0.00 1.00 0.95 99 1009.1
20200711115522 70 302 0.0 6.0 0.00 1.00 0.95 99 1009.2
20200711115028 70 127 1.0 6.0 0.00 1.00 0.95 99 1009.2
20200711114602 70 125 1.0 5.0 0.00 1.00 0.95 99 1009.1
20200711114028 70 290 0.0 4.0 0.00 1.00 0.95 99 1009.3
20200711113521 70 55 1.0 4.0 0.00 1.00 0.95 99 1009.4
20200711113109 70 90 0.0 4.0 0.00 1.00 0.95 99 1009.3
20200711112520 70 335 0.0 3.0 0.00 1.00 0.95 99 1009.4
20200711112018 70 75 0.0 3.0 0.00 1.00 0.95 99 1009.3
20200711111533 70 34 0.0 3.0 0.00 1.00 0.95 99 1009.4
20200711111017 70 105 0.0 3.0 0.00 1.00 0.95 99 1009.5
20200711110522 70 231 0.0 4.0 0.00 1.00 0.95 99 1009.6
20200711110130 70 110 1.0 4.0 0.00 1.00 0.95 99 1009.5
20200711105524 70 349 0.0 2.0 0.00 1.00 0.95 99 1009.6
20200711105016 70 45 0.0 3.0 0.00 1.00 0.95 99 1009.6
20200711104518 70 317 1.0 3.0 0.00 1.00 0.95 99 1009.6
20200711104015 70 37 0.0 3.0 0.00 1.00 0.95 99 1009.7
20200711103515 70 303 0.0 3.0 0.00 1.00 0.95 99 1009.7
20200711103107 70 119 0.0 3.0 0.00 1.00 0.95 99 1009.8
20200711102513 70 39 0.0 6.0 0.00 1.00 0.95 99 1009.8
20200711102020 70 208 1.0 6.0 0.01 1.00 0.95 99 1009.8
20200711101542 70 39 0.0 5.0 0.01 1.00 0.95 99 1009.9
20200711101013 70 120 1.0 5.0 0.02 1.00 0.95 99 1009.8
20200711100512 70 285 1.0 5.0 0.02 1.00 0.95 99 1009.9
20200711100017 70 91 0.0 6.0 0.03 1.00 0.95 99 1009.8
20200711095518 70 47 1.0 6.0 0.04 1.00 0.95 99 1009.9
20200711095029 70 274 1.0 5.0 0.05 1.00 0.95 99 1010.0
20200711094521 70 87 1.0 5.0 0.13 1.00 0.95 99 1010.0
20200711094029 70 79 0.0 5.0 0.16 1.00 0.95 99 1009.9
20200711093510 70 275 0.0 5.0 0.30 1.00 0.95 99 1010.0
20200711093033 70 51 0.0 4.0 0.40 1.00 0.95 99 1010.1
20200711092512 70 279 0.0 4.0 0.54 1.00 0.95 99 1010.2
20200711091008 70 328 0.0 3.0 0.60 0.98 0.93 99 1010.2
20200711090518 70 303 1.0 5.0 0.60 0.98 0.93 99 1010.1
20200711090011 70 329 0.0 5.0 0.59 0.97 0.92 99 1010.2
20200711085506 70 86 1.0 5.0 0.57 0.96 0.91 99 1010.3
20200711085009 70 332 1.0 5.0 0.56 0.94 0.89 99 1010.3
20200711084509 70 306 1.0 4.0 0.49 0.87 0.82 99 1010.4
20200711084006 69 338 1.0 4.0 0.45 0.82 0.77 99 1010.4
20200711083505 69 79 1.0 8.0 0.28 0.66 0.61 99 1010.6
20200711083010 69 250 3.0 8.0 0.21 0.57 0.53 99 1010.6
20200711082504 70 46 0.0 4.0 0.05 0.42 0.37 99 1010.6
20200711082005 70 102 0.0 4.0 0.04 0.38 0.33 99 1010.6
20200711081506 70 87 0.0 6.0 0.06 0.38 0.33 99 1010.5
20200711081003 70 163 1.0 6.0 0.08 0.38 0.33 99 1010.6
20200711080503 70 41 0.0 7.0 0.15 0.38 0.33 99 1010.6
20200711080002 70 127 0.0 5.0 0.19 0.38 0.33 99 1010.7
20200711075600 70 96 1.0 7.0 0.19 0.38 0.33 99 1010.7
20200711075101 70 195 1.0 7.0 0.22 0.38 0.33 99 1010.8
20200711074630 70 73 1.0 6.0 0.24 0.38 0.33 99 1010.9
20200711074059 70 134 2.0 6.0 0.23 0.37 0.32 99 1010.9
20200711073559 70 3 0.0 3.0 0.25 0.37 0.32 99 1010.9
20200711073128 70 108 0.0 6.0 0.25 0.37 0.32 99 1011.1
20200711072555 70 124 1.0 6.0 0.25 0.37 0.32 99 1011.1
20200711072056 70 82 0.0 3.0 0.22 0.34 0.28 99 1011.4
20200711071622 70 162 0.0 4.0 0.21 0.32 0.27 99 1011.4
20200711071058 70 101 0.0 6.0 0.18 0.28 0.24 99 1011.5
20200711070558 70 116 0.0 6.0 0.12 0.23 0.18 99 1011.7
20200711070120 70 89 1.0 5.0 0.08 0.19 0.14 99 1011.7
20200711065610 70 58 1.0 3.0 0.08 0.19 0.14 99 1011.6
20200711065107 69 111 0.0 3.0 0.05 0.16 0.11 99 1011.6
20200711064816 69 98 0.0 5.0 0.03 0.14 0.09 99 1011.7
20200711064111 69 184 0.0 6.0 0.03 0.14 0.09 99 1011.8
20200711063549 69 85 0.0 7.0 0.01 0.12 0.07 99 1012.0
20200711063124 69 67 1.0 4.0 0.01 0.12 0.07 99 1012.0
20200711062546 69 81 0.0 3.0 0.02 0.12 0.07 99 1012.2
20200711062046 69 89 0.0 6.0 0.02 0.12 0.07 99 1012.2
20200711061554 69 91 1.0 6.0 0.01 0.11 0.06 99 1012.2
20200711061044 69 79 1.0 6.0 0.01 0.11 0.06 99 1012.4
20200711060547 69 95 1.0 6.0 0.02 0.11 0.06 99 1012.4
20200711060057 69 81 1.0 7.0 0.02 0.11 0.06 99 1012.6
20200711055550 69 84 1.0 3.0 0.02 0.11 0.06 99 1012.8